World > North America > United States > Virginia

Virginia Beach, Virginia Regional Weather

Lat: 36.85N, Lon: 75.98W
Wx Zone: VAZ098
Warning FLW WEATHER ALERT - (More Info. Click Here) Warning
Feedback

Virginia Beach, VA Regional Weather

Expires:201908212300;;003438
ASUS41 KAKQ 212216
RWRAKQ

REGIONAL WEATHER ROUNDUP
NATIONAL WEATHER SERVICE WAKEFIELD VA
600 PM EDT WED AUG 21 2019

Note: "fair" indicates few or no clouds below 12,000 feet with no
significant weather and/or obstructions to visibility. * = Denotes
station may not report precipitation (e.g., rain,snow,etc.),
thunder or fog.


VAZ088>098-212300-
SOUTHEAST VIRGINIA
  
CITY           SKY/WX    TMP DP  RH WIND       PRES   REMARKS
NORFOLK        FAIR      87  74  64 SW14      29.93F HX  95           
VIRGINIA BEACH PTSUNNY   84  76  76 SW10      29.94S                  
NORFOLK NAVAL  FAIR      87  74  64 SW10      29.95F HX  95           
WEST POINT*    FAIR      87  74  64 SW8       29.93S HX  96           
SALUDA*        FAIR      87  74  66 SW10      29.91F HX  95           
NEWPORT NEWS   FAIR      88  72  58 SW13      29.92F                  
LANGLEY AFB    NOT AVBL                                               
FORT EUSTIS    FAIR      88  68  52 W9        29.91F                  
WILLIAMSBURG*  FAIR      90  73  58 CALM      29.93F HX  98           
HR EXEC AP*    FAIR      87  73  62 SW12      29.95F                  
FRANKLIN*      FAIR      88  74  63 SW6       29.95S HX  96           
US460-WAKEFLD  FAIR      89  74  60 SW5       29.93F HX  98           
$$


SKY/WX - Weather  TMP - Temperature  DP - Dew Point  RH - Relative Humidity
WIND - Wind Direction/Speed PRES - Barometric Pressure VSB - Visibility
WCI - Wind Chill Index E13G22 Wind - East Wind 13 mph/Gusts of 22 mph